This is the latest recevied weather packets stored in our database for station/object KD2SIG. If no packets are shown the sender has not sent any weather packets the latest 1 day(s).
| Time | Temp. | Humidity | Pressure | Rain* | Wind** | Luminosity | Snow |
|---|---|---|---|---|---|---|---|
| 1778067649 | 6.11° C | 98% | 1010.1 hPa | 1.78 mm | - | 21 W/m² | - |
| 1778067044 | 6.11° C | 98% | 1010.3 hPa | 1.27 mm | - | 17 W/m² | - |
| 1778066740 | 6.11° C | 98% | 1010.3 hPa | 1.27 mm | - | 14 W/m² | - |
| 1778066438 | 6.11° C | 97% | 1010.5 hPa | 1.78 mm | - | 12 W/m² | - |
| 1778064923 | 6.11° C | 97% | 1010.3 hPa | 0 mm | - | 9 W/m² | - |
| 1778064319 | 6.11° C | 97% | 1010.2 hPa | 0 mm | - | 10 W/m² | - |
| 1778063713 | 6.11° C | 97% | 1010.3 hPa | 1.78 mm | - | 4 W/m² | - |
| 1778063410 | 6.11° C | 97% | 1010.3 hPa | 0 mm | - | 5 W/m² | - |
| 1778061293 | 6.11° C | 97% | 1010.2 hPa | 1.78 mm | - | 0 W/m² | - |
| 1778060989 | 6.11° C | 97% | 1010.5 hPa | 1.78 mm | - | 0 W/m² | - |
| 1778060083 | 6.11° C | 97% | 1010.2 hPa | 3.05 mm | - | 0 W/m² | - |
| 1778059478 | 6.67° C | 97% | 1010.1 hPa | 3.05 mm | - | 0 W/m² | - |
| 1778059174 | 6.67° C | 97% | 1010.2 hPa | 1.27 mm | - | 0 W/m² | - |
| 1778058570 | 6.67° C | 97% | 1010.2 hPa | 0 mm | - | 0 W/m² | - |
| 1778058267 | 6.67° C | 97% | 1010.2 hPa | 1.27 mm | - | 0 W/m² | - |
| 1778056750 | 6.67° C | 97% | 1010.3 hPa | 1.78 mm | - | 0 W/m² | - |
| 1778056145 | 6.67° C | 97% | 1010.3 hPa | 0 mm | - | 0 W/m² | - |
| 1778055841 | 6.67° C | 97% | 1010.1 hPa | 0 mm | - | 0 W/m² | - |
| 1778055537 | 6.67° C | 97% | 1010.5 hPa | 0 mm | - | 0 W/m² | - |
| 1778054933 | 6.67° C | 97% | 1010.5 hPa | 0 mm | - | 0 W/m² | - |
| 1778053418 | 6.67° C | 97% | 1010.6 hPa | 0 mm | - | 0 W/m² | - |
| 1778053116 | 6.67° C | 97% | 1011 hPa | 0 mm | - | 0 W/m² | - |
| 1778052510 | 6.67° C | 97% | 1010.7 hPa | 1.27 mm | - | 0 W/m² | - |
| 1778052208 | 6.67° C | 97% | 1010.4 hPa | 1.27 mm | - | 0 W/m² | - |
| 1778051906 | 6.67° C | 97% | 1010.7 hPa | 0 mm | - | 0 W/m² | - |
* Rain latest hour (hover to see other rain measurements)
** Current wind speed in m/s (hover to see current wind gust speed)